Tracking 22287 objects as of 27-Jan-2021
HD Live streaming from Space Station
objects crossing your sky now

STARLINK-1470

Track STARLINK-1470 now!
10-day predictions
STARLINK-1470 is classified as:


NORAD ID: 45772
Int'l Code: 2020-038AU
Perigee: 555.5 km
Apogee: 558.3 km
Inclination: 53.0 °
Period: 95.6 minutes
Semi major axis: 6927 km
RCS: Unknown
Launch date: June 13, 2020
Source: United States (US)
Launch site: AIR FORCE EASTERN TEST RANGE (AFETR)
aabbcc
Your satellite tracking list
Your tracking list is empty




NASA's NSSDC Master Catalog

Two Line Element Set (TLE):
1 45772U 20038AU  21027.12663961  .00001093  00000-0  94181-4 0  9994
2 45772  53.0018 300.4365 0002026  76.9893 283.1321 15.05581925 36388
Source of the keplerian elements: AFSPC